Probability
0 0 0 0 0 0 0 0 0 0 0 0 0 0 0 0 0 0 0 0 3 0 13 19 23 23 23 23 23 23 26 23 19 23 26 26 23 23 23 23 23 23 19 19 16 16 13 13 10
0 0 0 0 0 0 0 0 0 0 0 0 0 0 0 0 0 0 0 0 3 3 13 13 23 23 23 23 23 23 19 19 19 23 23 23 19 23 23 23 23 23 19 16 16 19 10 10 10
0 0 0 0 0 0 0 0 0 0 0 0 0 0 0 0 0 0 0 3 3 3 13 13 19 23 23 19 19 23 23 23 19 19 19 19 19 19 19 19 23 23 19 19 19 10 10 10 10
0 0 0 0 0 0 0 0 0 0 0 0 0 0 0 0 0 0 0 0 3 3 6 13 16 19 23 19 19 23 23 23 19 19 19 19 19 19 19 19 23 19 19 19 13 13 10 10 10
0 0 0 0 0 0 0 0 0 0 0 0 0 0 0 0 0 0 0 3 3 3 3 10 16 19 23 19 19 23 23 23 19 19 19 19 16 16 19 19 19 19 16 16 13 10 10 10 10
0 0 0 0 0 0 0 0 0 0 0 0 0 0 0 0 0 0 3 3 3 3 3 13 16 16 16 16 19 19 23 23 23 19 19 19 16 16 13 16 16 16 16 19 13 10 10 10 10
0 0 0 0 0 0 0 0 0 0 0 0 0 0 0 0 0 0 3 3 3 3 3 10 13 10 10 16 16 19 19 16 19 19 19 13 13 13 13 13 16 16 16 13 10 10 10 10 6
0 0 0 0 0 0 0 0 0 0 0 0 0 0 0 0 0 0 0 3 3 3 3 3 13 10 10 10 10 13 10 10 16 16 13 13 10 10 10 6 13 13 13 10 10 10 6 6 0
0 0 0 0 0 0 0 0 0 0 0 0 0 0 0 0 0 0 0 3 3 3 3 3 6 6 6 6 3 3 3 6 3 3 3 3 3 3 3 6 6 10 10 10 10 6 3 0 0
0 0 0 0 0 0 0 0 0 0 0 0 0 0 0 0 0 0 0 0 3 3 3 3 3 6 6 6 6 3 3 3 3 3 3 3 3 3 3 0 6 6 6 3 3 3 3 0 0
0 0 0 0 0 0 0 0 0 0 0 0 0 0 0 0 0 0 0 0 3 3 3 3 3 3 6 6 6 3 3 3 3 3 3 3 3 3 3 0 0 0 0 0 3 0 0 0 0
0 0 0 0 0 0 0 0 0 0 0 0 0 0 0 0 0 0 0 0 3 3 3 3 3 3 3 3 3 3 3 3 3 3 3 3 3 3 3 0 0 0 0 0 0 0 0 0 0
0 0 0 0 0 0 0 0 0 0 0 0 0 0 0 0 0 0 0 0 0 3 0 0 0 3 3 3 3 0 0 3 3 3 3 3 3 0 0 0 0 0 0 0 0 0 0 0 0
0 0 0 0 0 0 0 0 0 0 0 0 0 0 0 0 0 0 0 0 0 0 0 0 0 0 0 0 3 0 0 0 3 3 3 3 0 0 0 0 0 0 0 0 0 0 0 0 0
0 0 0 0 0 0 0 0 0 0 0 0 0 0 0 0 0 0 0 0 0 0 0 0 0 0 0 0 0 0 0 0 0 3 3 3 0 0 0 0 0 0 0 0 0 0 0 0 0
0 0 0 0 0 0 0 0 0 0 0 0 0 0 0 0 0 0 0 0 0 0 0 0 0 0 0 0 0 0 0 0 0 3 3 3 0 0 0 0 0 0 0 0 0 0 0 0 0
0 0 0 0 0 0 0 0 0 0 0 0 0 0 0 0 0 0 0 0 0 0 0 0 0 0 0 0 0 0 0 0 0 0 3 0 0 0 0 0 0 0 0 0 0 0 0 0 0
0 0 0 0 0 0 0 0 0 0 0 0 0 0 0 0 0 0 0 0 0 0 0 0 0 0 0 0 0 0 0 0 0 0 0 0 0 0 0 0 0 0 0 0 0 0 0 0 0
0 0 0 0 0 0 0 0 0 0 0 0 0 0 0 0 0 0 0 0 0 0 0 0 0 0 0 0 0 0 0 0 0 0 0 0 0 0 0 0 0 0 0 0 0 0 0 0 0
0 0 0 0 0 0 0 0 0 0 0 0 0 0 0 0 0 0 0 0 0 0 0 0 0 0 0 0 0 0 0 0 0 0 0 0 0 0 0 0 0 0 0 0 0 0 0 0 0
0 0 0 0 0 0 0 0 0 0 0 0 0 0 0 0 0 0 0 0 0 0 0 0 0 0 0 0 0 0 0 0 0 0 0 0 0 0 0 0 0 0 0 0 0 0 0 0 0
0 0 0 0 0 0 0 0 0 0 0 0 0 0 0 0 0 0 0 0 0 0 0 0 0 0 0 0 0 0 0 0 0 0 0 0 0 0 0 0 0 0 0 0 0 0 0 0 0
0 0 0 0 0 0 0 0 0 0 0 0 0 0 0 0 0 0 0 0 0 0 0 0 0 0 0 0 0 0 0 0 0 0 0 0 0 0 0 0 0 0 0 0 0 0 0 0 0
0 0 0 0 0 0 0 0 0 0 0 0 0 0 0 0 0 0 0 0 0 0 0 0 0 0 0 0 0 0 0 0 0 0 0 0 0 0 0 0 0 0 0 0 0 0 0 0 0
0 0 0 0 0 0 0 0 0 0 0 0 0 0 0 0 0 0 0 0 0 0 0 0 0 0 0 0 0 0 0 0 0 0 0 0 0 0 0 0 0 0 0 0 0 0 0 0 0
0 0 0 0 0 0 0 0 0 0 0 0 0 0 0 0 0 0 0 0 0 0 0 0 0 0 0 0 0 0 0 0 0 0 0 0 0 0 0 0 0 0 0 0 0 0 0 0 0
0 0 0 0 0 0 0 0 0 0 0 0 0 0 0 0 0 0 0 0 0 0 0 0 0 0 0 0 0 0 0 0 0 0 0 0 0 0 0 0 0 0 0 0 0 0 0 0 0
0 0 0 0 0 0 0 0 0 0 0 0 0 0 0 0 0 0 0 0 0 0 0 0 0 0 0 0 0 0 0 0 0 0 0 0 0 0 0 0 0 0 0 0 0 0 0 0 0
0 0 0 0 0 0 0 0 0 0 0 0 0 0 0 0 0 0 0 0 0 0 0 0 0 0 0 0 0 0 0 0 0 0 0 0 0 0 0 0 0 0 0 0 0 0 0 0 0
0 0 0 0 0 0 0 0 0 0 0 0 0 0 0 0 0 0 0 0 0 0 0 0 0 0 0 0 0 0 0 0 0 0 0 0 0 0 0 0 0 0 0 0 0 0 0 0 0
Height
5797 5797 5798 5800 5801 5802 5803 5805 5806 5808 5809 5810 5812 5814 5815 5817 5818 5822 5822 5822 5824 5825 5827 5828 5830 5831 5832 5833 5835 5836 5837 5838 5839 5840 5841 5841 5842 5843 5844 5845 5846 5847 5847 5848 5848 5849 5849 5849 5848
5793 5794 5795 5796 5797 5797 5800 5801 5802 5804 5805 5807 5808 5810 5811 5812 5814 5816 5817 5818 5820 5822 5823 5825 5826 5828 5829 5831 5832 5833 5834 5835 5836 5838 5838 5839 5840 5841 5843 5843 5844 5845 5845 5846 5847 5847 5847 5848 5848
5790 5790 5792 5792 5792 5794 5796 5797 5798 5799 5801 5802 5804 5805 5807 5808 5810 5811 5813 5814 5816 5818 5820 5821 5822 5824 5826 5827 5828 5830 5831 5832 5833 5835 5836 5837 5838 5839 5840 5841 5842 5843 5843 5844 5845 5845 5846 5847 5847
5786 5787 5787 5788 5788 5790 5791 5792 5793 5794 5796 5797 5799 5800 5802 5804 5805 5807 5808 5810 5812 5814 5815 5817 5818 5820 5822 5823 5825 5826 5827 5829 5830 5831 5832 5834 5835 5836 5837 5838 5839 5840 5841 5842 5843 5844 5844 5845 5845
5782 5782 5783 5783 5784 5786 5786 5787 5789 5790 5791 5793 5794 5795 5797 5799 5800 5802 5804 5805 5807 5809 5811 5812 5814 5816 5817 5819 5821 5822 5823 5825 5826 5828 5829 5830 5832 5833 5834 5835 5836 5837 5838 5839 5840 5841 5842 5843 5843
5778 5778 5779 5779 5780 5781 5782 5783 5784 5785 5786 5788 5789 5790 5792 5794 5795 5797 5799 5800 5802 5803 5806 5807 5809 5811 5813 5814 5816 5818 5819 5820 5822 5823 5825 5827 5828 5829 5830 5832 5833 5834 5835 5836 5837 5838 5839 5840 5841
5774 5773 5773 5774 5775 5776 5777 5778 5779 5780 5781 5783 5784 5785 5786 5788 5790 5792 5793 5795 5797 5798 5800 5802 5804 5806 5807 5809 5811 5813 5815 5816 5818 5819 5821 5822 5824 5825 5826 5827 5829 5830 5831 5832 5833 5834 5835 5836 5837
5768 5769 5769 5770 5770 5771 5772 5773 5774 5775 5776 5777 5779 5780 5780 5783 5784 5786 5788 5790 5791 5793 5794 5796 5798 5800 5802 5804 5805 5807 5809 5811 5813 5814 5816 5818 5819 5820 5822 5823 5824 5825 5827 5828 5829 5830 5831 5833 5834
5763 5765 5765 5765 5765 5766 5766 5767 5769 5769 5771 5771 5772 5774 5775 5777 5778 5780 5782 5784 5785 5787 5788 5790 5792 5794 5796 5798 5800 5802 5803 5805 5807 5809 5811 5813 5814 5815 5817 5818 5819 5820 5822 5823 5824 5825 5827 5828 5829
5759 5759 5760 5760 5760 5760 5760 5761 5762 5763 5765 5766 5766 5768 5769 5771 5772 5773 5775 5777 5779 5780 5782 5784 5786 5788 5790 5792 5793 5795 5797 5799 5801 5803 5805 5807 5808 5810 5811 5813 5814 5815 5816 5817 5819 5820 5822 5823 5824
5753 5754 5755 5754 5754 5754 5754 5755 5756 5757 5758 5759 5760 5761 5763 5765 5766 5767 5768 5770 5772 5774 5775 5777 5779 5781 5783 5785 5787 5788 5790 5792 5794 5796 5798 5800 5802 5804 5805 5807 5808 5810 5811 5812 5813 5815 5816 5817 5818
5748 5748 5748 5748 5748 5748 5748 5749 5749 5751 5752 5752 5753 5754 5756 5757 5759 5760 5762 5763 5765 5767 5769 5770 5772 5774 5775 5777 5779 5781 5783 5785 5787 5789 5791 5793 5795 5797 5798 5800 5802 5803 5804 5806 5807 5808 5810 5811 5812
5742 5742 5742 5742 5742 5742 5742 5742 5743 5744 5745 5745 5745 5746 5748 5749 5751 5753 5754 5755 5757 5759 5761 5763 5764 5766 5768 5770 5772 5773 5775 5777 5780 5782 5784 5786 5788 5789 5791 5793 5794 5796 5797 5798 5800 5801 5802 5804 5805
5736 5735 5735 5735 5735 5735 5735 5735 5736 5738 5737 5737 5738 5739 5740 5742 5743 5744 5746 5747 5749 5751 5753 5755 5756 5758 5760 5762 5764 5765 5767 5769 5771 5773 5776 5778 5779 5781 5783 5785 5786 5788 5789 5791 5792 5793 5795 5796 5797
5729 5728 5728 5729 5729 5728 5727 5728 5730 5730 5729 5730 5730 5731 5732 5733 5734 5736 5737 5738 5740 5742 5744 5746 5748 5750 5752 5754 5755 5757 5759 5761 5763 5765 5767 5769 5771 5772 5774 5776 5777 5779 5781 5782 5783 5784 5786 5787 5788
5721 5721 5720 5722 5722 5721 5721 5721 5723 5722 5722 5722 5722 5723 5723 5724 5725 5727 5728 5729 5731 5733 5735 5737 5739 5741 5743 5745 5747 5749 5750 5752 5754 5756 5758 5760 5762 5763 5765 5767 5768 5770 5771 5773 5774 5775 5777 5778 5779
5714 5714 5713 5714 5714 5713 5712 5713 5715 5714 5713 5714 5714 5714 5714 5715 5716 5718 5719 5721 5722 5724 5726 5728 5730 5732 5734 5736 5738 5739 5741 5743 5744 5746 5748 5750 5752 5754 5755 5757 5758 5760 5761 5762 5764 5765 5767 5768 5769
5708 5706 5706 5705 5706 5704 5704 5705 5706 5706 5705 5705 5705 5705 5706 5706 5707 5708 5710 5711 5713 5714 5716 5719 5720 5722 5724 5726 5728 5730 5731 5733 5735 5736 5738 5740 5741 5743 5745 5747 5748 5749 5751 5752 5753 5754 5756 5757 5759
5700 5698 5698 5698 5697 5696 5695 5696 5697 5697 5697 5696 5696 5697 5697 5697 5698 5699 5700 5702 5703 5705 5707 5709 5711 5713 5714 5716 5718 5720 5721 5723 5725 5726 5728 5729 5731 5732 5734 5736 5737 5738 5739 5741 5742 5743 5744 5746 5747
5692 5691 5690 5690 5689 5688 5687 5688 5689 5689 5688 5688 5688 5688 5688 5689 5689 5690 5691 5692 5694 5695 5697 5699 5701 5703 5704 5706 5708 5710 5711 5713 5714 5716 5717 5718 5720 5721 5723 5724 5726 5727 5728 5729 5730 5731 5732 5733 5735
5684 5684 5683 5682 5681 5679 5679 5679 5681 5682 5680 5680 5680 5679 5679 5680 5681 5681 5682 5683 5684 5686 5687 5689 5691 5692 5694 5696 5697 5699 5700 5702 5704 5705 5706 5707 5708 5710 5711 5712 5713 5715 5716 5717 5717 5719 5720 5721 5722
5677 5676 5674 5673 5672 5672 5671 5670 5673 5673 5672 5672 5671 5671 5671 5671 5672 5672 5673 5673 5675 5676 5678 5679 5681 5682 5683 5685 5686 5688 5690 5692 5693 5694 5695 5696 5697 5698 5699 5700 5701 5702 5704 5704 5706 5706 5707 5708 5709
5669 5668 5667 5665 5664 5663 5663 5661 5664 5664 5664 5663 5663 5662 5663 5663 5663 5663 5663 5664 5665 5666 5667 5669 5670 5671 5673 5674 5675 5677 5678 5680 5681 5683 5684 5684 5685 5686 5687 5688 5689 5690 5691 5692 5693 5694 5695 5695 5696
5661 5660 5659 5657 5655 5655 5657 5654 5654 5656 5656 5655 5655 5654 5654 5654 5654 5654 5654 5655 5655 5656 5657 5658 5659 5661 5662 5663 5664 5665 5667 5668 5669 5670 5671 5672 5673 5673 5674 5675 5676 5677 5678 5679 5680 5681 5682 5682 5683
5655 5653 5651 5649 5647 5647 5648 5645 5647 5647 5647 5646 5646 5645 5645 5644 5644 5644 5645 5645 5646 5646 5647 5648 5649 5650 5650 5651 5652 5653 5655 5656 5657 5658 5658 5659 5660 5660 5661 5661 5662 5663 5664 5665 5666 5667 5668 5669 5670
5647 5646 5644 5642 5639 5639 5639 5637 5639 5639 5638 5637 5636 5636 5635 5635 5634 5635 5635 5635 5636 5636 5636 5636 5637 5638 5639 5640 5640 5641 5642 5643 5644 5645 5645 5646 5646 5647 5647 5648 5649 5650 5651 5652 5653 5653 5654 5655 5656
5639 5637 5637 5634 5630 5629 5629 5629 5630 5630 5629 5628 5627 5626 5625 5625 5624 5625 5625 5625 5625 5625 5625 5625 5626 5626 5627 5628 5628 5629 5630 5630 5631 5631 5632 5632 5633 5633 5634 5634 5635 5636 5637 5638 5639 5640 5640 5641 5642
5631 5630 5628 5625 5622 5620 5620 5620 5621 5621 5620 5619 5617 5616 5615 5614 5614 5614 5614 5614 5614 5614 5614 5614 5614 5614 5615 5616 5616 5617 5617 5618 5618 5618 5618 5619 5619 5619 5619 5620 5621 5622 5623 5623 5624 5625 5626 5627 5628
5624 5622 5619 5616 5614 5612 5611 5614 5613 5611 5610 5609 5607 5605 5605 5604 5603 5603 5603 5602 5602 5602 5602 5602 5602 5602 5603 5603 5604 5604 5604 5605 5605 5605 5605 5606 5606 5606 5606 5606 5607 5607 5608 5609 5610 5611 5611 5612 5613
5614 5613 5611 5609 5607 5604 5602 5605 5604 5602 5600 5598 5597 5595 5594 5593 5592 5592 5591 5591 5590 5590 5590 5590 5590 5590 5590 5591 5591 5591 5591 5592 5592 5592 5592 5592 5592 5592 5592 5592 5593 5593 5594 5594 5595 5596 5597 5597 5598
Wind_Speed
18 19 19 20 21 22 20 20 20 20 21 21 21 21 21 22 22 23 22 21 21 20 20 19 19 18 18 17 17 18 17 16 15 15 14 13 13 13 13 12 12 12 11 10 9 9 8 7 7
18 19 20 20 21 22 21 21 21 21 22 22 23 22 22 23 23 24 24 23 23 22 22 21 20 20 19 19 19 19 19 18 17 17 16 15 15 15 14 14 13 13 12 12 11 11 10 9 8
19 20 20 21 22 21 21 22 23 23 23 23 24 24 24 24 24 24 25 25 24 24 24 24 23 22 21 21 20 20 21 20 19 19 18 18 17 17 17 16 16 15 14 14 12 12 11 11 10
20 21 21 22 21 20 21 23 23 23 24 24 24 25 25 25 26 26 26 26 26 26 26 26 25 24 23 23 22 22 22 22 22 21 21 20 19 19 19 18 18 17 16 16 15 13 13 12 12
20 21 22 22 21 21 22 23 23 23 25 24 24 25 26 26 26 26 26 26 27 27 27 27 27 26 26 25 25 24 24 23 24 23 23 22 21 20 20 20 20 19 19 18 17 16 15 15 15
20 22 22 22 21 22 23 23 24 25 25 25 25 25 26 26 26 27 27 27 27 28 28 28 28 28 28 27 27 27 26 25 25 24 24 24 23 23 22 21 21 21 21 20 19 19 18 17 17
20 21 22 22 22 22 23 23 24 25 25 25 25 26 28 28 27 27 27 28 28 29 29 29 29 29 29 29 29 28 28 27 26 26 26 25 25 24 24 23 23 23 22 22 22 21 20 20 19
20 22 22 22 22 23 23 24 24 25 25 26 26 26 28 28 29 29 28 29 29 29 30 31 30 30 31 30 30 30 29 29 28 28 27 27 27 26 26 25 25 25 24 24 24 23 23 22 22
21 22 22 22 23 24 24 25 25 25 26 27 28 28 28 28 29 30 30 30 30 31 31 31 32 32 32 32 32 31 31 30 29 29 29 28 28 27 27 27 27 27 27 26 26 25 25 25 25
22 23 21 22 23 24 25 26 27 27 28 28 29 30 29 29 30 31 31 31 32 32 33 32 33 33 33 34 33 33 33 32 31 31 31 31 30 30 29 28 28 28 28 28 28 28 27 27 27
22 23 22 23 24 25 26 26 28 28 28 29 31 32 31 32 32 32 32 32 33 33 33 33 34 34 34 35 35 35 35 34 33 33 33 32 32 32 31 31 30 30 30 30 30 30 29 29 29
24 23 23 24 25 25 26 27 28 29 29 30 32 33 33 33 33 34 34 34 34 34 34 35 34 35 35 36 36 36 36 35 35 35 34 34 34 34 34 33 33 33 33 33 33 32 32 31 31
25 25 25 26 26 27 28 28 29 29 30 32 33 34 34 34 34 34 35 36 35 35 35 36 36 35 36 36 36 37 37 37 37 37 36 36 36 35 35 35 35 35 35 35 34 34 34 34 34
26 27 28 28 27 28 29 30 30 29 30 32 33 34 35 35 36 35 36 37 37 37 37 37 37 36 37 37 38 38 38 38 38 37 37 37 37 38 38 37 37 36 37 37 37 36 36 36 36
27 28 29 28 28 28 29 30 29 29 31 32 33 34 35 36 37 37 37 37 38 38 38 37 38 38 38 38 39 39 39 39 39 38 38 39 39 39 40 40 39 39 38 39 39 39 38 39 38
28 29 29 28 29 30 31 30 29 30 31 32 33 34 35 36 37 37 38 38 39 39 38 38 39 39 39 39 39 40 41 41 41 40 40 40 40 40 40 41 41 41 41 41 41 41 42 41 41
29 29 30 29 29 31 32 31 29 30 32 33 33 34 35 36 37 37 38 39 39 40 39 39 39 40 40 40 41 41 42 43 43 42 42 42 42 42 42 41 42 42 42 43 43 43 44 44 44
28 29 29 30 30 31 32 32 30 30 32 32 33 33 34 36 37 37 38 38 39 40 40 40 40 40 40 41 41 42 43 43 43 44 43 43 44 44 44 43 44 44 44 44 45 45 45 45 46
28 29 30 30 30 32 33 32 31 31 32 32 32 32 33 34 36 37 37 38 39 39 39 39 40 41 41 42 42 42 43 44 44 44 45 45 45 45 46 46 45 46 46 46 47 46 46 46 47
29 30 30 31 30 32 33 32 31 31 32 32 32 32 33 34 35 36 37 37 38 38 38 39 40 41 41 41 42 43 43 44 45 45 46 47 46 46 46 47 47 46 47 47 47 47 47 47 48
30 30 31 31 31 32 34 33 31 31 32 32 32 33 33 34 35 36 37 37 38 38 38 38 39 41 41 41 42 43 43 44 45 45 46 46 46 46 46 46 46 46 46 46 46 47 47 48 48
30 30 31 31 32 32 33 35 31 32 32 32 33 33 34 34 35 35 36 37 38 38 39 39 39 40 41 41 42 43 44 44 45 45 46 46 47 47 46 47 46 46 46 46 47 47 47 48 48
31 30 31 31 32 33 33 35 34 33 33 33 34 34 34 34 35 35 36 37 38 39 39 40 40 40 40 41 42 43 43 44 45 45 45 46 47 47 47 48 47 47 47 47 47 47 48 48 48
31 32 32 32 33 33 33 35 35 34 33 33 34 34 34 35 35 35 36 36 37 38 38 39 40 41 41 42 43 44 44 44 45 46 47 47 47 48 48 49 49 49 48 48 48 48 48 48 48
30 31 33 34 34 35 34 35 35 34 34 34 34 34 35 35 35 35 35 36 37 37 38 39 39 41 42 42 43 44 44 44 45 46 47 48 48 48 49 50 50 50 50 50 51 50 49 49 50
30 31 32 35 36 36 35 36 35 35 35 35 35 35 35 35 36 35 35 36 37 37 38 39 40 41 41 42 42 43 43 44 45 46 46 47 49 50 51 51 51 51 51 51 52 51 51 51 52
32 32 33 34 36 37 36 36 36 35 35 35 35 36 36 37 36 37 36 36 37 38 39 41 42 42 42 42 42 43 44 45 45 45 45 46 48 50 51 51 51 51 51 51 52 52 52 52 53
32 33 33 34 36 37 36 35 35 34 34 35 36 36 37 37 37 37 38 38 38 39 40 41 42 42 43 44 44 44 44 45 45 46 45 46 47 48 49 50 51 51 51 51 52 53 53 53 53
32 32 33 34 35 36 37 36 35 35 35 35 36 37 37 37 38 38 38 39 39 39 40 41 42 43 44 44 45 45 45 45 46 46 46 46 47 48 48 50 51 52 52 52 53 52 53 53 53
33 33 33 34 35 36 38 37 34 35 36 36 36 37 38 38 38 38 39 40 40 41 41 41 42 43 44 44 45 46 46 46 46 47 47 48 48 48 48 48 50 51 52 53 54 53 53 53 53
Wind_Direction
256 255 254 253 253 252 254 254 255 252 253 251 249 246 244 245 246 246 246 246 245 245 244 242 243 241 239 237 237 237 238 238 238 238 238 241 241 241 243 241 243 245 247 249 249 250 252 252 244
257 257 255 254 253 253 254 252 252 252 253 253 250 248 244 244 247 247 247 246 246 245 245 243 243 243 241 239 239 240 239 239 240 240 239 240 242 243 244 244 245 245 246 248 248 250 252 252 249
259 258 257 256 255 256 255 253 252 253 253 254 253 251 248 247 247 247 247 246 246 245 245 244 243 243 243 242 241 241 239 239 241 241 241 242 243 245 246 245 245 245 245 247 248 249 249 250 248
259 258 258 258 257 257 255 254 255 255 255 255 255 254 252 250 249 248 248 247 247 246 245 245 244 243 244 244 243 243 242 242 242 243 243 244 246 247 247 247 248 247 247 248 249 249 248 248 249
259 259 259 258 258 258 256 256 256 256 255 255 255 256 255 253 252 250 248 248 248 247 247 246 246 244 244 245 245 244 245 245 244 245 244 245 246 248 250 249 249 249 249 249 250 250 250 250 248
260 260 260 260 260 259 258 257 257 258 258 256 256 257 255 255 254 252 249 248 249 248 247 247 247 246 245 246 246 246 246 246 247 246 245 245 247 248 250 251 250 250 249 249 249 250 250 250 249
262 262 261 260 259 259 260 258 259 260 261 260 258 258 257 254 254 253 252 250 249 248 247 247 247 247 246 247 247 247 248 248 248 248 247 245 246 249 251 252 252 251 251 250 249 249 250 250 250
265 265 262 261 261 261 261 260 260 260 261 260 258 257 257 256 255 254 253 252 251 250 249 248 248 248 248 248 248 248 248 248 248 248 248 247 248 250 251 252 253 253 253 251 250 250 250 250 250
266 266 264 263 263 262 262 262 261 260 260 259 257 257 257 257 256 255 253 253 253 253 252 250 249 248 248 248 249 249 249 249 249 249 249 250 250 250 252 252 253 254 254 253 251 251 251 251 251
268 267 266 265 265 264 263 263 262 260 259 258 257 257 256 256 256 256 255 253 253 254 254 253 252 250 250 249 249 250 249 250 250 250 250 251 252 254 254 252 252 254 254 253 253 252 253 253 253
268 269 267 266 266 265 264 263 262 261 259 258 258 257 256 256 256 256 255 254 253 254 254 254 253 252 251 250 249 249 250 250 250 250 250 252 253 254 253 253 253 254 253 254 255 254 255 255 255
269 268 267 268 267 267 266 265 264 263 261 260 259 258 257 256 256 255 255 255 254 254 254 253 253 253 252 251 251 249 249 249 250 250 251 252 253 253 253 253 255 255 255 254 254 255 255 255 255
271 269 268 268 268 267 266 266 266 265 264 262 261 261 258 257 257 256 255 254 254 254 254 255 254 254 253 252 252 251 250 250 251 250 250 252 253 253 255 254 254 255 254 254 255 255 255 256 256
274 271 269 268 269 268 266 266 267 267 266 264 262 261 260 258 256 256 256 256 255 254 253 254 255 255 254 253 252 252 251 250 250 250 250 251 252 254 255 254 254 253 254 254 254 256 257 257 256
273 273 270 269 269 269 268 267 267 267 266 265 264 262 261 259 257 257 256 256 256 255 254 254 254 255 255 255 253 252 251 250 251 251 251 251 252 254 255 255 255 254 254 255 255 255 256 256 257
273 272 272 271 270 268 268 269 269 268 267 267 266 265 263 261 258 257 257 256 256 255 254 254 254 254 255 255 254 252 252 251 252 252 253 253 253 254 256 256 256 256 256 256 256 256 257 257 257
273 274 274 273 271 270 269 270 269 269 268 268 268 267 265 262 259 258 257 257 256 256 255 255 254 254 254 255 255 254 253 253 253 253 254 254 254 255 256 257 257 258 258 258 258 257 258 258 258
277 276 275 274 272 271 271 271 270 270 270 269 269 268 267 264 261 259 258 258 258 258 257 256 255 255 255 255 255 255 255 255 255 255 255 255 255 255 257 258 258 258 259 260 260 260 260 260 259
278 276 275 275 274 272 272 272 273 271 271 270 269 269 268 266 263 262 261 260 259 259 258 257 257 257 256 256 255 255 255 256 256 256 256 256 256 257 258 259 259 259 260 260 260 261 261 261 261
275 276 276 276 275 275 274 272 272 273 273 273 271 270 268 266 265 264 264 262 261 260 258 257 257 257 257 257 256 256 257 257 257 258 258 258 258 259 260 260 260 261 262 262 262 261 262 261 261
275 275 276 276 276 275 275 273 272 273 275 275 273 271 269 267 266 265 264 263 261 260 259 258 258 258 257 257 257 257 256 257 258 258 259 260 260 260 261 260 261 261 263 263 263 263 263 263 262
278 276 276 276 277 277 277 276 273 274 275 275 273 272 270 268 267 265 263 263 262 261 259 258 258 258 257 258 259 259 259 258 258 259 259 260 261 262 262 261 262 262 263 264 264 264 264 264 263
279 278 278 278 278 278 279 279 277 277 277 275 274 273 271 269 267 266 265 264 264 263 261 259 259 259 259 259 260 260 260 259 260 260 260 261 262 263 263 263 263 263 263 264 264 264 264 264 264
282 280 279 280 280 279 279 281 280 280 280 278 276 274 273 271 269 268 266 266 266 265 262 260 260 259 260 260 260 260 260 260 260 260 260 261 263 263 264 263 263 264 263 264 264 264 265 265 264
282 282 282 281 280 281 281 282 282 283 282 280 278 275 273 272 271 270 268 268 268 266 263 262 261 260 261 261 262 261 260 260 261 261 261 262 262 263 263 264 264 264 264 264 264 264 265 264 264
283 283 283 283 283 283 282 283 283 283 282 281 279 277 274 272 271 270 269 268 268 267 265 264 263 262 263 262 262 262 261 261 262 261 261 262 263 263 264 264 264 264 264 265 265 264 265 265 264
284 283 284 283 283 283 282 283 283 283 282 281 280 279 276 273 271 271 270 269 269 267 266 265 264 263 263 263 263 262 262 262 263 263 263 263 263 264 264 265 265 265 265 265 265 265 265 265 265
284 285 285 284 284 284 284 285 286 285 284 282 280 279 278 276 273 271 271 271 270 269 267 266 265 264 263 263 262 262 262 263 264 264 264 263 264 264 265 265 266 266 266 266 266 266 265 265 266
283 284 284 284 283 284 285 285 287 286 285 283 280 279 278 277 276 274 273 272 271 270 269 268 266 265 264 264 264 264 263 264 265 266 265 265 265 266 266 266 266 266 266 266 266 267 266 266 266
282 283 283 283 283 284 285 286 287 286 285 284 282 280 279 278 278 277 276 274 272 271 270 268 267 265 265 265 266 266 265 266 267 267 267 267 267 268 267 267 267 266 265 265 266 266 266 266 266